Regional Weather Roundup
Issued by NWS

Home | Current Version | Previous Version | Graphics & Text | Print | Product List | Glossary On
Versions: 1 2 3 4 5 6 7 8 9 10 11 12 13 14 15 16 17 18 19 20 21 22 23 24 25 26 27 28 29 30 31 32 33 34 35 36 37 38 39 40 41 42 43 44 45 46 47 48 49 50
000
ASUS45 KBOU 040810
RWRCO

WEATHER ROUNDUP FOR COLORADO
NATIONAL WEATHER SERVICE DENVER/BOULDER CO
200 AM MDT SAT JUL 04 2015

NOTE: "FAIR" INDICATES FEW OR NO CLOUDS BELOW 12000 FEET WITH NO
SIGNIFICANT WEATHER AND/OR OBSTRUCTIONS TO VISIBILITY.

COZ001>005-013-030-031-040900-
...NORTHWEST COLORADO...

CITY           SKY/WX    TMP DP  RH WIND       PRES   REMARKS
CRAIG          CLEAR     54  45  71 S3        30.10R
HAYDEN         PTCLDY    63  39  42 E9        30.12R
MEEKER         MOCLDY    60  47  61 NE3       30.13S
MOUNT WERNER   NOT AVBL
STEAMBOAT SPGS CLEAR     54  44  69 CALM      30.16R
WALDEN         PTCLDY    54  41  62 E7        30.25S
$$

COZ006>008-011-040900-
...WEST CENTRAL VALLEYS...

CITY           SKY/WX    TMP DP  RH WIND       PRES   REMARKS
GRAND JUNCTION PTCLDY    76  51  41 E15       30.01S
MONTROSE       PTCLDY    70  46  42 SE9       30.13S
EAGLE          PTCLDY    63  48  59 E13       30.19S
RIFLE          PTCLDY    65  55  70 E9        30.08F
DELTA          PTCLDY    70  53  53 E7        30.08F
NUCLA          PTCLDY    63  48  59 E6        30.17S
$$

COZ017>023-064>068-040900-
...SOUTHWEST COLORADO...

CITY           SKY/WX    TMP DP  RH WIND       PRES   REMARKS
DURANGO        MOCLDY    56  47  71 CALM      30.21F
CORTEZ         MOCLDY    64  54  69 N7        30.15F
PAGOSA SPRINGS MOCLDY    52  50  90 CALM      30.31S
TELLURIDE      PTCLDY    53  44  73 SE5       30.40S
WOLF CREEK PAS NOT AVBL
$$

COZ009-010-012-014-032>034-037-058>063-040900-
...CENTRAL COLORADO...

CITY           SKY/WX    TMP DP  RH WIND       PRES   REMARKS
ASPEN          MOCLDY    61  47  59 SE15G21   30.27F
BUENA VISTA    PTCLDY    52  47  83 NW3       30.34S
COPPER MTN     PTCLDY    54  41  62 S16G23    30.59S
BERTHOUD PASS  FAIR      45  34  65 W13G24    30.61F
COTTONWOOD PAS NOT AVBL
GUNNISON       PTCLDY    55  46  71 CALM      30.36R
KREMMLING      PTCLDY    55  41  58 S3        30.24S
LEADVILLE      MOCLDY    49  46  90 VRB5      30.45R
MONARCH PASS   CLEAR     45  41  87 SW18      30.69F
SALIDA         PTCLDY    58  49  72 NW5       30.37F
SUNLIGHT       PTCLDY    57  36  44 CALM      30.51F
WILKERSON PASS PTCLDY    45  43  93 SW10G16   30.55F
$$

COZ069>075-040900-
...SAN LUIS VALLEY/SANGRE DE CRISTO MOUNTAINS...

CITY           SKY/WX    TMP DP  RH WIND       PRES   REMARKS
ALAMOSA        PTCLDY    53  49  86 E5        30.29F
LA VETA PASS   PTCLDY    48  39  71 MISG      30.46F
SAGUACHE       CLEAR     54  48  82 NW7       30.34S
$$

COZ035-036-038>040-040900-
...NORTHERN COLORADO FRONT RANGE...

CITY           SKY/WX    TMP DP  RH WIND       PRES   REMARKS
DENVER INTL AP CLEAR     67  53  61 SW10      30.05F
DMNS CITY PARK   N/A     67  52  58 SE8       30.05F
AURORA         PTCLDY    63  53  70 S10       30.08F
FRONT RANGE AP CLEAR     63  55  77 MISG      30.08S
ERIE MUNI ARPT CLEAR     62  57  84 CALM      30.03F
BOULDER MUN AP CLEAR     68  54  60 CALM      30.03F
CENTENNIAL     PTCLDY    65  51  60 S10       30.09F
BROOMFIELD     CLEAR     66  55  68 SE5       30.07F
FORT COLLINS   CLEAR     64  57  77 N5        30.03F
LONGMONT       CLEAR     65  57  75 E3        30.04S
$$

COZ041-046-047-076>085-087-088-040900-
...PIKES PEAK/PALMER DIVIDE AND SOUTHERN FOOTHILLS...

CITY           SKY/WX    TMP DP  RH WIND       PRES   REMARKS
COLO. SPRINGS  PTCLDY    57  52  83 N6        30.16F
A. F. ACADEMY  CLEAR     54  54  99 N8        30.17F
ELLICOTT       CLEAR    N/A N/A N/A W5        30.14F
FALCON         CLEAR     56  48  74 W3        30.20F
FORT CARSON    CLEAR     59  53  80 N3        30.12F
LIMON          CLEAR     58  56  93 SE8       30.11F
MONUMENT HILL  NOT AVBL
TRINIDAD       PTCLDY    62  54  74 W9        30.15F
$$

COZ042>045-048>051-090-091-040900-
...NORTHEAST COLORADO...

CITY           SKY/WX    TMP DP  RH WIND       PRES   REMARKS
GREELEY ARPT   CLEAR     64  57  77 SE5       30.02S
AKRON          CLEAR     64  60  87 SE14      30.04F
BURLINGTON     CLEAR     64  60  87 S13       30.06F
WRAY           PTCLDY    67  58  71 E6        30.03F
STERLING       CLEAR     68  59  73 S13         N/A
HOLYOKE        PTCLDY    64  59  82 SE7       30.03F
FORT MORGAN    CLEAR     65  57  74 SE8       30.02F
$$

COZ086-089-092>099-040900-
...SOUTHEAST COLORADO...

CITY           SKY/WX    TMP DP  RH WIND       PRES   REMARKS
PUEBLO         CLEAR     62  56  80 W7        30.06F
LA JUNTA       PTCLDY    68  55  63 W13       30.04R
LAMAR          PTCLDY    68  61  78 E7        30.01F
SPRINGFIELD      N/A     64  60  87 SW8       30.07F
$$


USA.gov is the U.S. government's official web portal to all federal, state and local government web resources and services.